contact:dominique.lefevre@mio.osupytheas.fr, maurice.libes@osupytheas.fr, didier.mallarino@osupytheas.fr
Project:EMSO http://www.emso-fr.org/EMSO-France
Depth: 2436.0 m
Title:EMSO Ligure Ouest : Data MII capteur MICROCAT
DateTime_Computer,Latitude,Longitude,Temperature,Conductivity,Pressure,DateTime_Instrument
DateTime_Computer,Latitude,Longitude,degC,S m-1,dbar,DateTime_Instrument
2022-06-08T00:02:51Z,42.805,6.029,13.2999,4.60033,2470.67,2022-6-08T02:04:34Z
2022-06-08T00:05:54Z,42.805,6.029,13.2999,4.60033,2470.661,2022-6-08T02:07:37Z
2022-06-08T00:08:57Z,42.805,6.029,13.3001,4.60035,2470.661,2022-6-08T02:10:40Z
2022-06-08T00:12:00Z,42.805,6.029,13.3002,4.60033,2470.646,2022-6-08T02:13:43Z
2022-06-08T00:15:04Z,42.805,6.029,13.3003,4.60034,2470.624,2022-6-08T02:16:46Z
2022-06-08T00:18:07Z,42.805,6.029,13.2998,4.60035,2470.661,2022-6-08T02:19:50Z
2022-06-08T00:21:10Z,42.805,6.029,13.3000,4.60033,2470.646,2022-6-08T02:22:53Z
2022-06-08T00:24:13Z,42.805,6.029,13.2998,4.60033,2470.661,2022-6-08T02:25:56Z
2022-06-08T00:27:16Z,42.805,6.029,13.2998,4.60033,2470.661,2022-6-08T02:28:59Z
2022-06-08T00:30:19Z,42.805,6.029,13.2997,4.60035,2470.646,2022-6-08T02:32:02Z
2022-06-08T00:33:22Z,42.805,6.029,13.3000,4.60039,2470.646,2022-6-08T02:35:05Z
2022-06-08T00:36:25Z,42.805,6.029,13.2999,4.60031,2470.67,2022-6-08T02:38:08Z
2022-06-08T00:39:29Z,42.805,6.029,13.3000,4.60033,2470.707,2022-6-08T02:41:11Z
2022-06-08T00:42:32Z,42.805,6.029,13.3001,4.60033,2470.67,2022-6-08T02:44:15Z
2022-06-08T00:45:35Z,42.805,6.029,13.2998,4.60034,2470.646,2022-6-08T02:47:18Z
2022-06-08T00:48:38Z,42.805,6.029,13.3000,4.60033,2470.646,2022-6-08T02:50:21Z
2022-06-08T00:51:41Z,42.805,6.029,13.3001,4.60035,2470.646,2022-6-08T02:53:24Z
2022-06-08T00:54:44Z,42.805,6.029,13.3000,4.60033,2470.684,2022-6-08T02:56:27Z
2022-06-08T00:57:47Z,42.805,6.029,13.2998,4.60035,2470.684,2022-6-08T02:59:30Z
2022-06-08T01:00:50Z,42.805,6.029,13.2998,4.60034,2470.661,2022-6-08T03:02:33Z
2022-06-08T01:03:53Z,42.805,6.029,13.3000,4.60033,2470.646,2022-6-08T03:05:36Z
2022-06-08T01:06:57Z,42.805,6.029,13.3000,4.60033,2470.707,2022-6-08T03:08:39Z
2022-06-08T01:10:00Z,42.805,6.029,13.2998,4.60035,2470.646,2022-6-08T03:11:43Z
2022-06-08T01:13:03Z,42.805,6.029,13.2998,4.60035,2470.67,2022-6-08T03:14:46Z
2022-06-08T01:16:06Z,42.805,6.029,13.2995,4.60033,2470.693,2022-6-08T03:17:49Z
2022-06-08T01:19:09Z,42.805,6.029,13.3000,4.60036,2470.661,2022-6-08T03:20:52Z
2022-06-08T01:22:12Z,42.805,6.029,13.2997,4.60033,2470.693,2022-6-08T03:23:55Z
2022-06-08T01:25:15Z,42.805,6.029,13.3003,4.60033,2470.646,2022-6-08T03:26:58Z
2022-06-08T01:28:18Z,42.805,6.029,13.2998,4.60033,2470.646,2022-6-08T03:30:01Z
2022-06-08T01:31:22Z,42.805,6.029,13.2998,4.60033,2470.684,2022-6-08T03:33:04Z
2022-06-08T01:34:25Z,42.805,6.029,13.3000,4.60036,2470.693,2022-6-08T03:36:08Z
2022-06-08T01:37:28Z,42.805,6.029,13.3000,4.60036,2470.684,2022-6-08T03:39:11Z
2022-06-08T01:40:31Z,42.805,6.029,13.3004,4.60039,2470.684,2022-6-08T03:42:14Z
2022-06-08T01:43:34Z,42.805,6.029,13.2998,4.60034,2470.646,2022-6-08T03:45:17Z
2022-06-08T01:46:37Z,42.805,6.029,13.3000,4.60034,2470.67,2022-6-08T03:48:20Z
2022-06-08T01:49:40Z,42.805,6.029,13.2999,4.60038,2470.646,2022-6-08T03:51:23Z
2022-06-08T01:52:43Z,42.805,6.029,13.3000,4.60034,2470.661,2022-6-08T03:54:26Z
2022-06-08T01:55:46Z,42.805,6.029,13.2997,4.60033,2470.693,2022-6-08T03:57:29Z
2022-06-08T01:58:50Z,42.805,6.029,13.2998,4.60036,2470.693,2022-6-08T04:00:32Z
2022-06-08T02:01:53Z,42.805,6.029,13.3000,4.60035,2470.646,2022-6-08T04:03:36Z
2022-06-08T02:04:56Z,42.805,6.029,13.3000,4.60033,2470.646,2022-6-08T04:06:39Z
2022-06-08T02:07:59Z,42.805,6.029,13.2998,4.60033,2470.684,2022-6-08T04:09:42Z
2022-06-08T02:11:02Z,42.805,6.029,13.3004,4.60042,2470.67,2022-6-08T04:12:45Z
2022-06-08T02:14:05Z,42.805,6.029,13.3001,4.60033,2470.646,2022-6-08T04:15:48Z
2022-06-08T02:17:08Z,42.805,6.029,13.2999,4.60033,2470.646,2022-6-08T04:18:51Z
2022-06-08T02:20:11Z,42.805,6.029,13.2998,4.60033,2470.661,2022-6-08T04:21:54Z
2022-06-08T02:23:15Z,42.805,6.029,13.3001,4.60036,2470.646,2022-6-08T04:24:57Z
2022-06-08T02:26:18Z,42.805,6.029,13.3004,4.60039,2470.646,2022-6-08T04:28:01Z
2022-06-08T02:29:21Z,42.805,6.029,13.3001,4.60040,2470.67,2022-6-08T04:31:04Z
2022-06-08T02:32:24Z,42.805,6.029,13.2996,4.60038,2470.67,2022-6-08T04:34:07Z
2022-06-08T02:35:27Z,42.805,6.029,13.3002,4.60034,2470.624,2022-6-08T04:37:10Z
2022-06-08T02:38:30Z,42.805,6.029,13.3000,4.60033,2470.637,2022-6-08T04:40:13Z
2022-06-08T02:41:33Z,42.805,6.029,13.2999,4.60035,2470.684,2022-6-08T04:43:16Z
2022-06-08T02:44:36Z,42.805,6.029,13.2996,4.60035,2470.637,2022-6-08T04:46:19Z
2022-06-08T02:47:39Z,42.805,6.029,13.2999,4.60034,2470.646,2022-6-08T04:49:22Z
2022-06-08T02:50:43Z,42.805,6.029,13.3002,4.60032,2470.661,2022-6-08T04:52:25Z
2022-06-08T02:53:46Z,42.805,6.029,13.3000,4.60034,2470.661,2022-6-08T04:55:29Z
2022-06-08T02:56:49Z,42.805,6.029,13.3000,4.60039,2470.661,2022-6-08T04:58:32Z
2022-06-08T02:59:52Z,42.805,6.029,13.2998,4.60033,2470.646,2022-6-08T05:01:35Z
2022-06-08T03:02:55Z,42.805,6.029,13.2998,4.60032,2470.646,2022-6-08T05:04:38Z
2022-06-08T03:05:58Z,42.805,6.029,13.2998,4.60034,2470.646,2022-6-08T05:07:41Z
2022-06-08T03:09:01Z,42.805,6.029,13.3001,4.60036,2470.646,2022-6-08T05:10:44Z
2022-06-08T03:12:04Z,42.805,6.029,13.2997,4.60041,2470.646,2022-6-08T05:13:47Z
2022-06-08T03:15:08Z,42.805,6.029,13.2996,4.60040,2470.6,2022-6-08T05:16:50Z
2022-06-08T03:18:11Z,42.805,6.029,13.2998,4.60035,2470.624,2022-6-08T05:19:54Z
2022-06-08T03:21:14Z,42.805,6.029,13.3002,4.60039,2470.624,2022-6-08T05:22:57Z
2022-06-08T03:24:17Z,42.805,6.029,13.2997,4.60036,2470.637,2022-6-08T05:26:00Z
2022-06-08T03:27:20Z,42.805,6.029,13.3001,4.60043,2470.637,2022-6-08T05:29:03Z
2022-06-08T03:30:23Z,42.805,6.029,13.2998,4.60043,2470.646,2022-6-08T05:32:06Z
2022-06-08T03:33:26Z,42.805,6.029,13.3001,4.60036,2470.637,2022-6-08T05:35:09Z
2022-06-08T03:36:29Z,42.805,6.029,13.2998,4.60038,2470.661,2022-6-08T05:38:12Z
2022-06-08T03:39:32Z,42.805,6.029,13.3004,4.60039,2470.624,2022-6-08T05:41:15Z
2022-06-08T03:42:36Z,42.805,6.029,13.3002,4.60036,2470.624,2022-6-08T05:44:18Z
2022-06-08T03:45:39Z,42.805,6.029,13.2999,4.60037,2470.646,2022-6-08T05:47:21Z
2022-06-08T03:48:42Z,42.805,6.029,13.2996,4.60035,2470.646,2022-6-08T05:50:25Z
2022-06-08T03:51:45Z,42.805,6.029,13.2996,4.60033,2470.624,2022-6-08T05:53:28Z
2022-06-08T03:54:48Z,42.805,6.029,13.3000,4.60035,2470.624,2022-6-08T05:56:31Z
2022-06-08T03:57:51Z,42.805,6.029,13.2998,4.60033,2470.624,2022-6-08T05:59:34Z
2022-06-08T04:00:54Z,42.805,6.029,13.3003,4.60032,2470.67,2022-6-08T06:02:37Z
2022-06-08T04:03:57Z,42.805,6.029,13.2996,4.60033,2470.67,2022-6-08T06:05:40Z
2022-06-08T04:07:00Z,42.805,6.029,13.2999,4.60033,2470.637,2022-6-08T06:08:43Z
2022-06-08T04:10:04Z,42.805,6.029,13.2999,4.60035,2470.646,2022-6-08T06:11:46Z
2022-06-08T04:13:07Z,42.805,6.029,13.3001,4.60033,2470.637,2022-6-08T06:14:50Z
2022-06-08T04:16:10Z,42.805,6.029,13.2998,4.60032,2470.624,2022-6-08T06:17:53Z
2022-06-08T04:19:13Z,42.805,6.029,13.3001,4.60032,2470.624,2022-6-08T06:20:56Z
2022-06-08T04:22:16Z,42.805,6.029,13.3003,4.60034,2470.646,2022-6-08T06:23:59Z
2022-06-08T04:25:19Z,42.805,6.029,13.2994,4.60034,2470.646,2022-6-08T06:27:02Z
2022-06-08T04:28:22Z,42.805,6.029,13.2999,4.60032,2470.6,2022-6-08T06:30:05Z
2022-06-08T04:31:25Z,42.805,6.029,13.3000,4.60031,2470.624,2022-6-08T06:33:08Z
2022-06-08T04:34:29Z,42.805,6.029,13.2995,4.60033,2470.624,2022-6-08T06:36:11Z
2022-06-08T04:37:32Z,42.805,6.029,13.3000,4.60032,2470.646,2022-6-08T06:39:14Z
2022-06-08T04:40:35Z,42.805,6.029,13.3001,4.60033,2470.6,2022-6-08T06:42:18Z
2022-06-08T04:43:38Z,42.805,6.029,13.2998,4.60032,2470.614,2022-6-08T06:45:21Z
2022-06-08T04:46:41Z,42.805,6.029,13.2999,4.60031,2470.637,2022-6-08T06:48:24Z
2022-06-08T04:49:44Z,42.805,6.029,13.3000,4.60033,2470.624,2022-6-08T06:51:27Z
2022-06-08T04:52:47Z,42.805,6.029,13.2998,4.60032,2470.624,2022-6-08T06:54:30Z
2022-06-08T04:55:50Z,42.805,6.029,13.2999,4.60031,2470.624,2022-6-08T06:57:33Z
2022-06-08T04:58:53Z,42.805,6.029,13.3000,4.60031,2470.577,2022-6-08T07:00:36Z
2022-06-08T05:01:57Z,42.805,6.029,13.2998,4.60031,2470.614,2022-6-08T07:03:39Z
2022-06-08T05:05:00Z,42.805,6.029,13.3000,4.60033,2470.624,2022-6-08T07:06:43Z
2022-06-08T05:08:03Z,42.805,6.029,13.2998,4.60035,2470.624,2022-6-08T07:09:46Z
2022-06-08T05:11:06Z,42.805,6.029,13.2999,4.60034,2470.6,2022-6-08T07:12:49Z
2022-06-08T05:14:09Z,42.805,6.029,13.3000,4.60033,2470.577,2022-6-08T07:15:52Z
2022-06-08T05:17:12Z,42.805,6.029,13.2997,4.60033,2470.563,2022-6-08T07:18:55Z
2022-06-08T05:20:15Z,42.805,6.029,13.2997,4.60032,2470.591,2022-6-08T07:21:58Z
2022-06-08T05:23:18Z,42.805,6.029,13.3002,4.60033,2470.6,2022-6-08T07:25:01Z
2022-06-08T05:26:21Z,42.805,6.029,13.2998,4.60031,2470.577,2022-6-08T07:28:04Z
2022-06-08T05:29:25Z,42.805,6.029,13.2998,4.60033,2470.6,2022-6-08T07:31:07Z
2022-06-08T05:32:28Z,42.805,6.029,13.2998,4.60033,2470.624,2022-6-08T07:34:11Z
2022-06-08T05:35:31Z,42.805,6.029,13.3003,4.60032,2470.614,2022-6-08T07:37:14Z
2022-06-08T05:38:34Z,42.805,6.029,13.3000,4.60032,2470.577,2022-6-08T07:40:17Z
2022-06-08T05:41:37Z,42.805,6.029,13.3004,4.60033,2470.563,2022-6-08T07:43:20Z
2022-06-08T05:44:40Z,42.805,6.029,13.3000,4.60033,2470.6,2022-6-08T07:46:23Z
2022-06-08T05:47:43Z,42.805,6.029,13.3001,4.60037,2470.614,2022-6-08T07:49:26Z
2022-06-08T05:50:46Z,42.805,6.029,13.3001,4.60032,2470.6,2022-6-08T07:52:29Z
2022-06-08T05:53:50Z,42.805,6.029,13.2999,4.60032,2470.6,2022-6-08T07:55:32Z
2022-06-08T05:56:53Z,42.805,6.029,13.3000,4.60031,2470.591,2022-6-08T07:58:36Z
2022-06-08T05:59:56Z,42.805,6.029,13.2997,4.60032,2470.577,2022-6-08T08:01:39Z
2022-06-08T06:02:59Z,42.805,6.029,13.3001,4.60034,2470.577,2022-6-08T08:04:42Z
2022-06-08T06:06:02Z,42.805,6.029,13.3003,4.60034,2470.553,2022-6-08T08:07:45Z
2022-06-08T06:09:05Z,42.805,6.029,13.2998,4.60031,2470.577,2022-6-08T08:10:48Z
2022-06-08T06:12:08Z,42.805,6.029,13.3001,4.60032,2470.577,2022-6-08T08:13:51Z
2022-06-08T06:15:11Z,42.805,6.029,13.2997,4.60032,2470.614,2022-6-08T08:16:54Z
2022-06-08T06:18:14Z,42.805,6.029,13.3004,4.60032,2470.577,2022-6-08T08:19:57Z
2022-06-08T06:21:18Z,42.805,6.029,13.3002,4.60033,2470.577,2022-6-08T08:23:00Z
2022-06-08T06:24:21Z,42.805,6.029,13.2999,4.60032,2470.6,2022-6-08T08:26:04Z
2022-06-08T06:27:24Z,42.805,6.029,13.3002,4.60033,2470.553,2022-6-08T08:29:07Z
2022-06-08T06:30:27Z,42.805,6.029,13.2998,4.60032,2470.553,2022-6-08T08:32:10Z
2022-06-08T06:33:30Z,42.805,6.029,13.3000,4.60031,2470.553,2022-6-08T08:35:13Z
2022-06-08T06:36:33Z,42.805,6.029,13.2996,4.60031,2470.591,2022-6-08T08:38:16Z
2022-06-08T06:39:36Z,42.805,6.029,13.2998,4.60033,2470.553,2022-6-08T08:41:19Z
2022-06-08T06:42:39Z,42.805,6.029,13.2995,4.60031,2470.567,2022-6-08T08:44:22Z
2022-06-08T06:45:43Z,42.805,6.029,13.3000,4.60031,2470.553,2022-6-08T08:47:25Z
2022-06-08T06:48:46Z,42.805,6.029,13.2998,4.60032,2470.6,2022-6-08T08:50:29Z
2022-06-08T06:51:49Z,42.805,6.029,13.2996,4.60033,2470.577,2022-6-08T08:53:32Z
2022-06-08T06:54:52Z,42.805,6.029,13.2998,4.60038,2470.6,2022-6-08T08:56:35Z
2022-06-08T06:57:55Z,42.805,6.029,13.3000,4.60032,2470.577,2022-6-08T08:59:38Z
2022-06-08T07:00:58Z,42.805,6.029,13.2997,4.60036,2470.591,2022-6-08T09:02:41Z
2022-06-08T07:04:01Z,42.805,6.029,13.2997,4.60031,2470.553,2022-6-08T09:05:44Z
2022-06-08T07:07:04Z,42.805,6.029,13.3000,4.60033,2470.553,2022-6-08T09:08:47Z
2022-06-08T07:10:07Z,42.805,6.029,13.2998,4.60031,2470.53,2022-6-08T09:11:50Z
2022-06-08T07:13:11Z,42.805,6.029,13.2999,4.60032,2470.544,2022-6-08T09:14:53Z
2022-06-08T07:16:14Z,42.805,6.029,13.2998,4.60033,2470.553,2022-6-08T09:17:57Z
2022-06-08T07:19:17Z,42.805,6.029,13.3000,4.60032,2470.577,2022-6-08T09:21:00Z
2022-06-08T07:22:20Z,42.805,6.029,13.3000,4.60033,2470.553,2022-6-08T09:24:03Z
2022-06-08T07:25:23Z,42.805,6.029,13.3002,4.60033,2470.591,2022-6-08T09:27:06Z
2022-06-08T07:28:26Z,42.805,6.029,13.2999,4.60032,2470.544,2022-6-08T09:30:09Z
2022-06-08T07:31:29Z,42.805,6.029,13.2998,4.60033,2470.591,2022-6-08T09:33:12Z
2022-06-08T07:34:32Z,42.805,6.029,13.2997,4.60032,2470.553,2022-6-08T09:36:15Z
2022-06-08T07:37:36Z,42.805,6.029,13.3000,4.60032,2470.53,2022-6-08T09:39:18Z
2022-06-08T07:40:39Z,42.805,6.029,13.3001,4.60033,2470.544,2022-6-08T09:42:22Z
2022-06-08T07:43:42Z,42.805,6.029,13.3003,4.60034,2470.553,2022-6-08T09:45:25Z
2022-06-08T07:46:45Z,42.805,6.029,13.2999,4.60032,2470.544,2022-6-08T09:48:28Z
2022-06-08T07:49:48Z,42.805,6.029,13.3003,4.60035,2470.544,2022-6-08T09:51:31Z
2022-06-08T07:52:51Z,42.805,6.029,13.2999,4.60032,2470.53,2022-6-08T09:54:34Z
2022-06-08T07:55:54Z,42.805,6.029,13.3001,4.60031,2470.53,2022-6-08T09:57:37Z
2022-06-08T07:58:57Z,42.805,6.029,13.2998,4.60031,2470.577,2022-6-08T10:00:40Z
2022-06-08T08:02:00Z,42.805,6.029,13.2999,4.60031,2470.544,2022-6-08T10:03:43Z
2022-06-08T08:05:04Z,42.805,6.029,13.3000,4.60032,2470.553,2022-6-08T10:06:46Z
2022-06-08T08:08:07Z,42.805,6.029,13.3000,4.60031,2470.544,2022-6-08T10:09:50Z
2022-06-08T08:11:10Z,42.805,6.029,13.3000,4.60032,2470.53,2022-6-08T10:12:53Z
2022-06-08T08:14:13Z,42.805,6.029,13.3000,4.60031,2470.53,2022-6-08T10:15:56Z
2022-06-08T08:17:16Z,42.805,6.029,13.3001,4.60033,2470.507,2022-6-08T10:18:59Z
2022-06-08T08:20:19Z,42.805,6.029,13.3001,4.60032,2470.544,2022-6-08T10:22:02Z
2022-06-08T08:23:22Z,42.805,6.029,13.3000,4.60033,2470.53,2022-6-08T10:25:05Z
2022-06-08T08:26:25Z,42.805,6.029,13.3000,4.60032,2470.567,2022-6-08T10:28:08Z
2022-06-08T08:29:29Z,42.805,6.029,13.3001,4.60031,2470.53,2022-6-08T10:31:11Z
2022-06-08T08:32:32Z,42.805,6.029,13.2996,4.60032,2470.544,2022-6-08T10:34:15Z
2022-06-08T08:35:35Z,42.805,6.029,13.2998,4.60031,2470.553,2022-6-08T10:37:18Z
2022-06-08T08:38:38Z,42.805,6.029,13.3002,4.60033,2470.507,2022-6-08T10:40:21Z
2022-06-08T08:41:41Z,42.805,6.029,13.2998,4.60031,2470.544,2022-6-08T10:43:24Z
2022-06-08T08:44:44Z,42.805,6.029,13.2998,4.60031,2470.553,2022-6-08T10:46:27Z
2022-06-08T08:47:47Z,42.805,6.029,13.2998,4.60030,2470.544,2022-6-08T10:49:30Z
2022-06-08T08:50:50Z,42.805,6.029,13.3002,4.60031,2470.53,2022-6-08T10:52:33Z
2022-06-08T08:53:54Z,42.805,6.029,13.2996,4.60032,2470.53,2022-6-08T10:55:36Z
2022-06-08T08:56:57Z,42.805,6.029,13.3000,4.60031,2470.507,2022-6-08T10:58:40Z
2022-06-08T09:00:00Z,42.805,6.029,13.2999,4.60033,2470.544,2022-6-08T11:01:43Z
2022-06-08T09:03:03Z,42.805,6.029,13.3000,4.60031,2470.53,2022-6-08T11:04:46Z
2022-06-08T09:06:06Z,42.805,6.029,13.2997,4.60030,2470.507,2022-6-08T11:07:49Z
2022-06-08T09:09:09Z,42.805,6.029,13.2998,4.60031,2470.53,2022-6-08T11:10:52Z
2022-06-08T09:12:12Z,42.805,6.029,13.3000,4.60029,2470.53,2022-6-08T11:13:55Z
2022-06-08T09:15:15Z,42.805,6.029,13.2998,4.60031,2470.544,2022-6-08T11:16:58Z
2022-06-08T09:18:18Z,42.805,6.029,13.3004,4.60030,2470.53,2022-6-08T11:20:01Z
2022-06-08T09:21:22Z,42.805,6.029,13.3000,4.60031,2470.567,2022-6-08T11:23:04Z
2022-06-08T09:24:25Z,42.805,6.029,13.2998,4.60031,2470.553,2022-6-08T11:26:08Z
2022-06-08T09:27:28Z,42.805,6.029,13.2998,4.60031,2470.567,2022-6-08T11:29:11Z
2022-06-08T09:30:31Z,42.805,6.029,13.3000,4.60031,2470.52,2022-6-08T11:32:14Z
2022-06-08T09:33:34Z,42.805,6.029,13.2999,4.60031,2470.53,2022-6-08T11:35:17Z
2022-06-08T09:36:37Z,42.805,6.029,13.2998,4.60031,2470.53,2022-6-08T11:38:20Z
2022-06-08T09:39:40Z,42.805,6.029,13.3001,4.60030,2470.53,2022-6-08T11:41:23Z
2022-06-08T09:42:43Z,42.805,6.029,13.2999,4.60031,2470.544,2022-6-08T11:44:26Z
2022-06-08T09:45:47Z,42.805,6.029,13.2998,4.60031,2470.53,2022-6-08T11:47:29Z
2022-06-08T09:48:50Z,42.805,6.029,13.3000,4.60031,2470.53,2022-6-08T11:50:33Z
2022-06-08T09:51:53Z,42.805,6.029,13.3001,4.60031,2470.553,2022-6-08T11:53:36Z
2022-06-08T09:54:56Z,42.805,6.029,13.2996,4.60030,2470.52,2022-6-08T11:56:39Z
2022-06-08T09:57:59Z,42.805,6.029,13.2996,4.60031,2470.553,2022-6-08T11:59:42Z
2022-06-08T10:01:02Z,42.805,6.029,13.3000,4.60031,2470.544,2022-6-08T12:02:45Z
2022-06-08T10:04:05Z,42.805,6.029,13.3000,4.60031,2470.553,2022-6-08T12:05:48Z
2022-06-08T10:07:08Z,42.805,6.029,13.3000,4.60031,2470.53,2022-6-08T12:08:51Z
2022-06-08T10:10:12Z,42.805,6.029,13.2999,4.60032,2470.53,2022-6-08T12:11:54Z
2022-06-08T10:13:15Z,42.805,6.029,13.3002,4.60031,2470.553,2022-6-08T12:14:58Z
2022-06-08T10:16:18Z,42.805,6.029,13.3000,4.60031,2470.553,2022-6-08T12:18:01Z
2022-06-08T10:19:21Z,42.805,6.029,13.2998,4.60031,2470.591,2022-6-08T12:21:04Z
2022-06-08T10:22:24Z,42.805,6.029,13.3001,4.60031,2470.553,2022-6-08T12:24:07Z
2022-06-08T10:25:27Z,42.805,6.029,13.3001,4.60030,2470.567,2022-6-08T12:27:10Z
2022-06-08T10:28:30Z,42.805,6.029,13.3001,4.60031,2470.567,2022-6-08T12:30:13Z
2022-06-08T10:31:33Z,42.805,6.029,13.3002,4.60029,2470.53,2022-6-08T12:33:16Z
2022-06-08T10:34:37Z,42.805,6.029,13.3000,4.60031,2470.553,2022-6-08T12:36:19Z
2022-06-08T10:37:40Z,42.805,6.029,13.3000,4.60031,2470.52,2022-6-08T12:39:23Z
2022-06-08T10:40:43Z,42.805,6.029,13.2998,4.60031,2470.553,2022-6-08T12:42:26Z
2022-06-08T10:43:46Z,42.805,6.029,13.2999,4.60031,2470.53,2022-6-08T12:45:29Z
2022-06-08T10:46:49Z,42.805,6.029,13.3000,4.60030,2470.544,2022-6-08T12:48:32Z
2022-06-08T10:49:52Z,42.805,6.029,13.3000,4.60031,2470.553,2022-6-08T12:51:35Z
2022-06-08T10:52:55Z,42.805,6.029,13.2998,4.60031,2470.567,2022-6-08T12:54:38Z
2022-06-08T10:55:58Z,42.805,6.029,13.3004,4.60031,2470.53,2022-6-08T12:57:41Z
2022-06-08T10:59:02Z,42.805,6.029,13.3000,4.60031,2470.53,2022-6-08T13:00:44Z
2022-06-08T11:02:05Z,42.805,6.029,13.2998,4.60031,2470.553,2022-6-08T13:03:48Z
2022-06-08T11:05:08Z,42.805,6.029,13.2999,4.60031,2470.553,2022-6-08T13:06:51Z
2022-06-08T11:08:11Z,42.805,6.029,13.3000,4.60031,2470.553,2022-6-08T13:09:54Z
2022-06-08T11:11:14Z,42.805,6.029,13.3000,4.60031,2470.591,2022-6-08T13:12:57Z
2022-06-08T11:14:17Z,42.805,6.029,13.2998,4.60031,2470.567,2022-6-08T13:16:00Z
2022-06-08T11:17:20Z,42.805,6.029,13.2999,4.60033,2470.567,2022-6-08T13:19:03Z
2022-06-08T11:20:23Z,42.805,6.029,13.2998,4.60030,2470.53,2022-6-08T13:22:06Z
2022-06-08T11:23:27Z,42.805,6.029,13.2998,4.60031,2470.577,2022-6-08T13:25:09Z
2022-06-08T11:26:30Z,42.805,6.029,13.2997,4.60031,2470.591,2022-6-08T13:28:12Z
2022-06-08T11:29:33Z,42.805,6.029,13.2998,4.60031,2470.577,2022-6-08T13:31:16Z
2022-06-08T11:32:36Z,42.805,6.029,13.3004,4.60031,2470.577,2022-6-08T13:34:19Z
2022-06-08T11:35:39Z,42.805,6.029,13.2999,4.60031,2470.567,2022-6-08T13:37:22Z
2022-06-08T11:38:42Z,42.805,6.029,13.2999,4.60031,2470.53,2022-6-08T13:40:25Z
2022-06-08T11:41:45Z,42.805,6.029,13.3000,4.60030,2470.553,2022-6-08T13:43:28Z
2022-06-08T11:44:48Z,42.805,6.029,13.3000,4.60031,2470.553,2022-6-08T13:46:31Z
2022-06-08T11:47:51Z,42.805,6.029,13.2998,4.60033,2470.567,2022-6-08T13:49:34Z
2022-06-08T11:50:55Z,42.805,6.029,13.3000,4.60030,2470.614,2022-6-08T13:52:37Z
2022-06-08T11:53:58Z,42.805,6.029,13.3001,4.60029,2470.6,2022-6-08T13:55:41Z
2022-06-08T11:57:01Z,42.805,6.029,13.2998,4.60032,2470.577,2022-6-08T13:58:44Z
2022-06-08T12:00:04Z,42.805,6.029,13.2997,4.60031,2470.553,2022-6-08T14:01:47Z
2022-06-08T12:03:07Z,42.805,6.029,13.2999,4.60030,2470.577,2022-6-08T14:04:50Z
2022-06-08T12:06:10Z,42.805,6.029,13.3004,4.60031,2470.553,2022-6-08T14:07:53Z
2022-06-08T12:09:13Z,42.805,6.029,13.2997,4.60033,2470.6,2022-6-08T14:10:56Z
2022-06-08T12:12:16Z,42.805,6.029,13.3000,4.60032,2470.591,2022-6-08T14:13:59Z
2022-06-08T12:15:20Z,42.805,6.029,13.3000,4.60031,2470.591,2022-6-08T14:17:02Z
2022-06-08T12:18:23Z,42.805,6.029,13.3001,4.60031,2470.591,2022-6-08T14:20:06Z
2022-06-08T12:21:26Z,42.805,6.029,13.2998,4.60030,2470.553,2022-6-08T14:23:09Z
2022-06-08T12:24:29Z,42.805,6.029,13.2997,4.60031,2470.577,2022-6-08T14:26:12Z
2022-06-08T12:27:32Z,42.805,6.029,13.2996,4.60031,2470.624,2022-6-08T14:29:15Z
2022-06-08T12:30:35Z,42.805,6.029,13.3001,4.60033,2470.6,2022-6-08T14:32:18Z
2022-06-08T12:33:38Z,42.805,6.029,13.2998,4.60031,2470.577,2022-6-08T14:35:21Z
2022-06-08T12:36:41Z,42.805,6.029,13.2998,4.60031,2470.591,2022-6-08T14:38:24Z
2022-06-08T12:39:45Z,42.805,6.029,13.2996,4.60033,2470.577,2022-6-08T14:41:27Z
2022-06-08T12:42:48Z,42.805,6.029,13.3000,4.60031,2470.553,2022-6-08T14:44:31Z
2022-06-08T12:45:51Z,42.805,6.029,13.3001,4.60033,2470.577,2022-6-08T14:47:34Z
2022-06-08T12:48:54Z,42.805,6.029,13.3000,4.60033,2470.553,2022-6-08T14:50:37Z
2022-06-08T12:51:57Z,42.805,6.029,13.3001,4.60032,2470.6,2022-6-08T14:53:40Z
2022-06-08T12:55:00Z,42.805,6.029,13.3002,4.60031,2470.6,2022-6-08T14:56:43Z
2022-06-08T12:58:03Z,42.805,6.029,13.3000,4.60034,2470.6,2022-6-08T14:59:46Z
2022-06-08T13:01:06Z,42.805,6.029,13.2998,4.60032,2470.563,2022-6-08T15:02:49Z
2022-06-08T13:04:10Z,42.805,6.029,13.3000,4.60032,2470.614,2022-6-08T15:05:52Z
2022-06-08T13:07:13Z,42.805,6.029,13.3001,4.60034,2470.567,2022-6-08T15:08:55Z
2022-06-08T13:10:16Z,42.805,6.029,13.2999,4.60033,2470.553,2022-6-08T15:11:59Z
2022-06-08T13:13:19Z,42.805,6.029,13.2998,4.60033,2470.614,2022-6-08T15:15:02Z
2022-06-08T13:16:22Z,42.805,6.029,13.3004,4.60032,2470.591,2022-6-08T15:18:05Z
2022-06-08T13:19:25Z,42.805,6.029,13.2998,4.60032,2470.6,2022-6-08T15:21:08Z
2022-06-08T13:22:28Z,42.805,6.029,13.3000,4.60031,2470.6,2022-6-08T15:24:11Z
2022-06-08T13:25:31Z,42.805,6.029,13.3002,4.60033,2470.614,2022-6-08T15:27:14Z
2022-06-08T13:28:34Z,42.805,6.029,13.3002,4.60033,2470.577,2022-6-08T15:30:17Z
2022-06-08T13:31:38Z,42.805,6.029,13.3002,4.60033,2470.624,2022-6-08T15:33:20Z
2022-06-08T13:34:41Z,42.805,6.029,13.2998,4.60031,2470.614,2022-6-08T15:36:24Z
2022-06-08T13:37:44Z,42.805,6.029,13.3001,4.60033,2470.6,2022-6-08T15:39:27Z
2022-06-08T13:40:47Z,42.805,6.029,13.2999,4.60033,2470.614,2022-6-08T15:42:30Z
2022-06-08T13:43:50Z,42.805,6.029,13.3002,4.60032,2470.6,2022-6-08T15:45:33Z
2022-06-08T13:46:53Z,42.805,6.029,13.3000,4.60033,2470.614,2022-6-08T15:48:36Z
2022-06-08T13:49:56Z,42.805,6.029,13.2999,4.60032,2470.624,2022-6-08T15:51:39Z
2022-06-08T13:53:00Z,42.805,6.029,13.2998,4.60033,2470.614,2022-6-08T15:54:42Z
2022-06-08T13:56:03Z,42.805,6.029,13.3000,4.60033,2470.6,2022-6-08T15:57:45Z
2022-06-08T13:59:06Z,42.805,6.029,13.3002,4.60032,2470.624,2022-6-08T16:00:49Z
2022-06-08T14:02:09Z,42.805,6.029,13.3003,4.60036,2470.577,2022-6-08T16:03:52Z
2022-06-08T14:05:12Z,42.805,6.029,13.3001,4.60033,2470.591,2022-6-08T16:06:55Z
2022-06-08T14:08:15Z,42.805,6.029,13.3002,4.60035,2470.6,2022-6-08T16:09:58Z
2022-06-08T14:11:18Z,42.805,6.029,13.3003,4.60032,2470.6,2022-6-08T16:13:01Z
2022-06-08T14:14:21Z,42.805,6.029,13.3002,4.60033,2470.591,2022-6-08T16:16:04Z
2022-06-08T14:17:24Z,42.805,6.029,13.2998,4.60033,2470.646,2022-6-08T16:19:07Z
2022-06-08T14:20:28Z,42.805,6.029,13.3000,4.60034,2470.6,2022-6-08T16:22:10Z
2022-06-08T14:23:31Z,42.805,6.029,13.3006,4.60033,2470.6,2022-6-08T16:25:14Z
2022-06-08T14:26:34Z,42.805,6.029,13.3003,4.60034,2470.614,2022-6-08T16:28:17Z
2022-06-08T14:29:37Z,42.805,6.029,13.3003,4.60033,2470.591,2022-6-08T16:31:20Z
2022-06-08T14:32:40Z,42.805,6.029,13.3001,4.60033,2470.577,2022-6-08T16:34:23Z
2022-06-08T14:35:43Z,42.805,6.029,13.3002,4.60033,2470.6,2022-6-08T16:37:26Z
2022-06-08T14:38:46Z,42.805,6.029,13.3002,4.60036,2470.6,2022-6-08T16:40:29Z
2022-06-08T14:41:49Z,42.805,6.029,13.3004,4.60033,2470.6,2022-6-08T16:43:32Z
2022-06-08T14:44:53Z,42.805,6.029,13.3000,4.60034,2470.6,2022-6-08T16:46:35Z
2022-06-08T14:47:56Z,42.805,6.029,13.3001,4.60034,2470.6,2022-6-08T16:49:39Z
2022-06-08T14:50:59Z,42.805,6.029,13.3004,4.60034,2470.624,2022-6-08T16:52:42Z
2022-06-08T14:54:02Z,42.805,6.029,13.3000,4.60033,2470.577,2022-6-08T16:55:45Z
2022-06-08T14:57:05Z,42.805,6.029,13.3005,4.60033,2470.6,2022-6-08T16:58:48Z
2022-06-08T15:00:08Z,42.805,6.029,13.3004,4.60034,2470.577,2022-6-08T17:01:51Z
2022-06-08T15:03:11Z,42.805,6.029,13.3004,4.60033,2470.624,2022-6-08T17:04:54Z
2022-06-08T15:06:14Z,42.805,6.029,13.3002,4.60034,2470.591,2022-6-08T17:07:57Z
2022-06-08T15:09:17Z,42.805,6.029,13.3006,4.60034,2470.6,2022-6-08T17:11:00Z
2022-06-08T15:12:21Z,42.805,6.029,13.3002,4.60036,2470.6,2022-6-08T17:14:03Z
2022-06-08T15:15:24Z,42.805,6.029,13.3002,4.60034,2470.6,2022-6-08T17:17:07Z